Home   Weather   Hesperia   Past weeks
Flag for USA

Past Weather in Hesperia, California, USA — Yesterday and Last 2 Weeks

Now
81 °F

Sunny.


Feels Like: 79 °F
Forecast: 73 / 49 °F
Wind: No wind

Location: Norton Air Force Base / San Bern

Current Time: Oct 17, 2019 at 2:00:07 pm

Latest Report: Oct 17, 2019 at 11:48 am


Visibility: 10 mi

Pressure: 29.82 "Hg (26.70 "Hg at 971m altitude)

Humidity: 23%

Dew Point: 39 °F

Location of HesperiaLocation

Past Weather in Hesperia — Graph

°F

Hesperia Temperature Yesterday

Maximum temperature yesterday: 93 °F (at 1:47 pm)
Minimum temperature yesterday: 60 °F (at 4:21 am)
Average temperature yesterday: 72 °F

High & Low Weather Summary for the Past Weeks

 TemperatureHumidityPressure
High99 °F (Oct 6, 2:50 pm)78% (Oct 14, 12:01 am)30.08 "Hg (Oct 14, 12:01 am)
Low46 °F (Oct 11, 7:00 am)4% (Oct 10, 4:47 pm)29.77 "Hg (Oct 9, 3:48 pm)
Average67 °F36%29.94 "Hg
* Reported Oct 2 11:50 am — Oct 17 11:48 am, Hesperia. Weather by CustomWeather, © 2019

Note: Actual official high and low records may vary slightly from our data, if they occured in-between our weather recording intervals... More about our weather records

Advertising

Hesperia Weather History for the Previous 24 Hours

Scroll right to see more
 ConditionsComfort  
Time TempWeatherWind HumidityBarometerVisibility
11:48 am
Thu, Oct 17
81 °FSunny.No wind23%29.82 "Hg10 mi
10:48 am77 °FSunny.No wind28%29.84 "Hg10 mi
9:46 am72 °FSunny.No wind38%29.85 "Hg10 mi
8:45 am68 °FPassing clouds.No wind43%29.85 "Hg10 mi
7:00 am64 °FScattered clouds.3 mph37%29.82 "Hg10 mi
5:43 am64 °FClear.3 mph44%29.81 "Hg10 mi
5:20 am64 °FClear.8 mph45%29.80 "Hg10 mi
5:00 am64 °FClear.7 mph44%29.81 "Hg10 mi
4:40 am64 °FClear.7 mph45%29.81 "Hg10 mi
4:22 am64 °FClear.No wind45%29.82 "Hg10 mi
4:03 am61 °FClear.3 mph47%29.82 "Hg10 mi
3:40 am64 °FClear.3 mph39%29.81 "Hg10 mi
3:20 am65 °FClear.No wind37%29.81 "Hg10 mi
3:00 am65 °FClear.No wind37%29.81 "Hg10 mi
2:42 am65 °FClear.No wind40%29.81 "Hg10 mi
2:24 am65 °FClear.No wind39%29.82 "Hg10 mi
2:00 am64 °FClear.No wind41%29.82 "Hg10 mi
1:40 am65 °FClear.No wind41%29.84 "Hg10 mi
1:20 am65 °FClear.No wind41%29.84 "Hg10 mi
1:02 am65 °FClear.No wind41%29.84 "Hg10 mi
12:21 am67 °FClear.No wind36%29.84 "Hg10 mi
12:00 am66 °FClear.No wind41%29.85 "Hg10 mi
11:22 pm
Wed, Oct 16
68 °FClear.No wind38%29.85 "Hg10 mi
11:04 pm71 °FClear.No wind36%29.86 "Hg10 mi
10:40 pm70 °FClear.No wind34%29.86 "Hg10 mi
10:21 pm72 °FClear.3 mph32%29.86 "Hg10 mi
10:00 pm74 °FClear.No wind33%29.86 "Hg10 mi
9:42 pm76 °FClear.No wind33%29.86 "Hg10 mi
8:50 pm75 °FOvercast.No wind29%29.85 "Hg10 mi
7:50 pm79 °FOvercast.3 mph30%29.84 "Hg10 mi
6:50 pm81 °FOvercast.5 mph24%29.83 "Hg10 mi
5:47 pm86 °FPartly sunny.8 mph17%29.81 "Hg10 mi
4:53 pm88 °FPartly sunny.14 mph16%29.81 "Hg7 mi
3:48 pm93 °FPartly sunny.8 mph11%29.81 "Hg7 mi
2:55 pm93 °FPartly sunny.8 mph11%29.82 "Hg7 mi
Weather by CustomWeather, © 2019

See weather overview